Meteo Giornale » Osservazioni meteo Italia » Venezia-Tessera

ore: 18:20 - Osservazioni Meteo Venezia-Tessera
Lat. 45° 30' N Lon. 12° 20' E Alt. 2 metri s.l.m.

sereno Europe/Rome

15 °C

Sereno

Temp. 24 Ore

9 °C

18 °C

Est

11.1 Km/h

Dew point 11 °C

Umidità 76 %

Visibilità  10 Km

Il sole sorge alle ore 07:37

Il sole tramonta alle ore 18:12

Data e Ora Cielo e Fenomeni T °C DP °C Um. % Pres. hPa Vis. km Vento km/h
Oggi h: 18:20 sereno Sereno 15 11 76 1012 10 E 11.1
Oggi h: 17:50 sereno Sereno 16 12 77 1012 10 E 11.1
Oggi h: 17:20 sereno Sereno 17 12 72 1012 10 E 9.3
Oggi h: 16:50 sereno Sereno 17 11 67 1012 10 E/SE 9.3
Oggi h: 16:20 sereno Sereno 18 10 59 1012 10 S/SE 7.4
Oggi h: 15:50 sereno Sereno 17 11 67 1012 10 S/SE 9.3
Oggi h: 15:20 sereno Sereno 17 10 63 1012 10 SE 9.3
Oggi h: 14:50 sereno Sereno 16 10 67 1012 10 E/SE 9.3
Oggi h: 14:20 sereno Sereno 16 9 63 1012 10 SE 9.3
Oggi h: 13:50 sereno Sereno 16 9 63 1012 10 E/SE 7.4
Oggi h: 13:20 sereno Sereno 16 9 63 1012 10 S/SE 9.3
Oggi h: 12:50 sereno Sereno 16 8 58 1012 10 S/SE 7.4
Oggi h: 12:20 sereno Sereno 15 9 67 1012 10 SE 7.4
Oggi h: 11:50 sereno Sereno 15 9 67 1012 10 N 3.7
Oggi h: 11:20 sereno Sereno 14 8 67 1011 10 N 5.5
Oggi h: 10:50 sereno Sereno 13 8 71 1011 10 O 9.3
Oggi h: 10:20 sereno Sereno 12 8 76 1011 10 O/SO 13
Oggi h: 09:50 sereno Sereno 11 8 81 1011 10 SO 11.1
Oggi h: 09:20 sereno Sereno 10 8 87 1011 10 SO 14.8
Oggi h: 08:50 sereno Sereno 10 8 87 1011 10 SO 13
Oggi h: 08:20 sereno Sereno 9 7 87 1010 10 SO 13
Oggi h: 07:50 sereno Sereno 9 7 87 1010 10 SO 14.8
Oggi h: 07:20 sereno Sereno 9 7 87 1010 10 SO 14.8
Oggi h: 06:50 sereno Sereno 9 6 81 1010 10 S/SO 11.1
Oggi h: 06:20 sereno Sereno 10 7 81 1011 10 SO 22.2
Oggi h: 05:50 sereno Sereno 10 7 81 1011 10 SO 18.5
Oggi h: 05:20 sereno Sereno 10 7 81 1010 10 SO 14.8
Oggi h: 04:50 sereno Sereno 11 7 76 1011 10 SO 14.8
Oggi h: 04:20 sereno Sereno 11 7 76 1010 10 O/SO 14.8
Oggi h: 03:50 sereno Sereno 11 8 81 1010 10 O/SO 13
Oggi h: 03:20 sereno Sereno 11 8 81 1011 10 O 13
Oggi h: 02:50 sereno Sereno 11 8 81 1010 10 O 9.3
Oggi h: 02:20 nuvoloso Nuvoloso 11 8 81 1010 10 O/NO 16.7
Oggi h: 01:50 nuvoloso Nuvoloso 12 7 71 1010 10 S 14.8
Oggi h: 01:20 nuvoloso Nuvoloso 11 8 81 1010 10 SO 13
Oggi h: 00:50 molto_nuvoloso Molto Nuvoloso 10 8 87 1010 10 O 9.3
Oggi h: 00:20 coperto_pioggia Pioggia Debole 10 7 81 1011 10 O 14.8
Ieri h: 23:50 molto_nuvoloso Molto Nuvoloso 10 8 87 1011 10 O 18.5
Ieri h: 23:20 molto_nuvoloso Molto Nuvoloso 11 7 76 1011 10 N/NE 16.7
Ieri h: 22:50 molto_nuvoloso Molto Nuvoloso 11 8 81 1010 10 N/NE 25.9
Ieri h: 22:20 coperto_pioggia Pioggia Debole 10 8 87 1011 10 N/NE 29.6
Ieri h: 21:50 coperto_pioggia Pioggia Debole 11 9 87 1010 7 N/NE 35.2
Ieri h: 21:20 nuvoloso_piovaschi Rovescio di Pioggia 11 9 87 1011 7 N/NE 38.8
Ieri h: 20:50 nuvoloso_piovaschi Debole Rovescio di Pioggia 12 10 87 1011 6 N/NE 35.2
Ieri h: 20:20 nuvoloso_piovaschi Rovescio di Pioggia 13 10 81 1010 4 N/NE 33.3
Ieri h: 19:50 molto_nuvoloso Molto Nuvoloso 13 10 81 1010 10 N 18.5
Ieri h: 19:20 nuvoloso_piovaschi Rovescio di Pioggia 14 10 76 1009 6 NE 27.8
Ieri h: 18:50 nuvoloso_piovaschi Debole Rovescio di Pioggia 16 11 72 1008 5 NE 18.5